Tracking 33850 objects as of 19-Apr-2026
HD Live streaming from Space Station
objects crossing your sky now

ARIANE 5 DEB (SYLDA)

Track ARIANE 5 DEB (SYLDA) now!
10-day predictions


NORAD ID: 45247
Int'l Code: 2020-013C
Perigee: 262.8 km
Apogee: 22,852.9 km
Inclination: 5.5 °
Period: 398.2 minutes
Semi major axis: 17928 km
RCS: Unknown
Launch date: February 18, 2020
Source: France (FR)
Launch site: FRENCH GUIANA (FRGUI)

Note: This is SATELLITE DEBRIS
Your satellite tracking list
Your tracking list is empty




NASA's NSSDC Master Catalog

Two Line Element Set (TLE):
1 45247U 20013C   26108.31955807  .00047368  00000-0  70519-2 0  9995
2 45247   5.5338 213.0460 6299932 346.9013   2.3466  3.61638638 61967
Source of the keplerian elements: AFSPC